Station PTBM6 - 8741003 - Petit Bois Island, Port of Pascagoula, MS Image indicating link to RSS feed of recent meteorological observations for station PTBM6


Conditions at PTBM6 as of
(6:00 am CDT)
1100 GMT on 04/21/2024:
     

Click on the graph icon in the table below to see a time series plot of the last five days of that observation.

5-day plot - Wind Direction Wind Direction (WDIR):NNE ( 30 deg true )
5-day plot - Wind Speed Wind Speed (WSPD): 14.0 kts
5-day plot - Wind Gust Wind Gust (GST): 17.1 kts
5-day plot - Atmospheric Pressure Atmospheric Pressure (PRES):29.95 in
5-day plot - Air Temperature Air Temperature (ATMP): 61.2 °F
5-day plot - Wind Speed at 10 Meters Wind Speed at 10 meters (WSPD10M): 15.5 kts
5-day plot - Wind Speed at 20 Meters Wind Speed at 20 meters (WSPD20M): 17.5 kts
5-day plot -  Wind Speed, Wind Gust and Atmospheric Pressure Combined plot of Wind Speed, Gust, and Air Pressure
NOS Water Level Observation Network Water Level
Previous observations
TIME
(CDT)
5-day plot - Wind Direction
WDIR
 
5-day plot - Wind Speed
WSPD
kts
5-day plot - Wind Gust
GST
kts
5-day plot - Wave Height
WVHT
ft
5-day plot - Dominant Wave Period
DPD
sec
5-day plot - Average Wave Period
APD
sec
5-day plot - Mean Wave Direction
MWD
 
5-day plot - Atmospheric Pressure
PRES
in
5-day plot - Pressure Tendency
PTDY
in
5-day plot - Air Temperature
ATMP
°F
5-day plot - Water Temperature
WTMP
°F
5-day plot - Dew Point
DEWP
°F
5-day plot - Salinity
SAL
psu
5-day plot - Visibility
VIS
nmi
5-day plot - Tide (above MLLW)
TIDE
ft
2024-04-21 05:54 am N 13.0 17.1----29.99- 61.3-----
2024-04-21 05:48 am N 15.9 19.0----29.99- 61.0-----
2024-04-21 05:42 am N 15.0 19.0----29.99- 61.3-----
2024-04-21 05:36 am N 17.1 22.0----29.99- 61.7-----
2024-04-21 05:30 am N 21.0 26.0----29.98-------
2024-04-21 05:24 am N 22.9 27.0----29.98-------
2024-04-21 05:18 am N 22.0 27.0----29.98- 61.5-----
2024-04-21 05:12 am N 21.0 25.1----29.98- 61.7-----
2024-04-21 05:06 amNNW 22.0 26.0----29.98- 62.2-----
2024-04-21 05:00 am N 20.0 24.1----29.97+0.02 62.1-----
2024-04-21 04:54 am N 21.0 25.1----29.97- 62.4-----
2024-04-21 04:48 am N 22.0 29.9----29.97- 62.8-----
2024-04-21 04:42 am N 24.1 28.9----29.97- 62.4-----
2024-04-21 04:36 am N 22.9 29.9----29.97- 62.8-----
2024-04-21 04:30 amNNW 24.1 28.9----29.97- 62.8-----
2024-04-21 04:24 amNNW 22.9 27.0----29.98- 63.1-----
2024-04-21 04:18 amNNW 22.0 28.0----29.98- 63.3-----
2024-04-21 04:12 amNNW 20.0 26.0----29.98- 64.0-----
2024-04-21 04:06 amNNW 20.0 34.0----29.98- 65.1-----
2024-04-21 04:00 amNNE 8.0 11.1----29.95+0.00 64.4-----
2024-04-21 03:54 am N 8.0 9.9----29.96- 64.4-----
2024-04-21 03:48 am N 8.9 11.1----29.96- 64.4-----
2024-04-21 03:42 am N 8.0 12.0----29.96- 64.2-----
2024-04-21 03:36 am N 8.9 11.1----29.96- 64.2-----
2024-04-21 03:30 am N 7.0 8.9----29.96- 64.2-----
2024-04-21 03:24 am N 8.0 8.9----29.96- 64.0-----
2024-04-21 03:18 am N 8.0 11.1----29.96-------
2024-04-21 03:12 am N 9.9 13.0----29.96-------
2024-04-21 03:06 am N 11.1 13.0----29.96-------
2024-04-21 03:00 am N 8.9 12.0------ 64.2-----
2024-04-21 02:54 am N 9.9 13.0------ 64.2-----
2024-04-21 02:48 am N 11.1 13.0----29.95- 64.8-----
2024-04-21 02:42 am N 11.1 13.0----29.95- 64.9-----
2024-04-21 02:36 am N 11.1 13.0----29.95- 64.6-----
2024-04-21 02:30 amNNE 9.9 12.0----29.95- 64.6-----
2024-04-21 02:24 amNNE 9.9 12.0----29.95- 64.8-----
2024-04-21 02:18 amNNE 9.9 12.0----29.95- 64.9-----
2024-04-21 02:12 am N 9.9 12.0----29.95- 65.3-----
2024-04-21 02:06 am N 11.1 13.0----29.95- 65.3-----
2024-04-21 02:00 am N 8.9 11.1----29.95-0.02 65.5-----
2024-04-21 01:54 am N 11.1 13.0----29.95- 65.7-----
2024-04-21 01:48 amNNE 8.9 11.1----29.95- 66.0-----
2024-04-21 01:42 amNNE 9.9 12.0----29.94- 66.0-----
2024-04-21 01:36 amNNE 9.9 11.1----29.95- 65.8-----
2024-04-21 01:30 amNNE 11.1 13.0----29.95- 66.0-----
2024-04-21 01:24 amNNE 9.9 12.0----29.95- 66.2-----
2024-04-21 01:18 am N 12.0 14.0----29.95- 66.2-----
2024-04-21 01:12 am N 12.0 15.0----29.95- 66.4-----
2024-04-21 01:06 am N 12.0 15.0----29.95- 66.6-----
2024-04-21 01:00 amNNE 11.1 13.0----29.96-0.01 66.7-----
2024-04-21 12:54 amNNE 12.0 14.0----29.95- 67.3-----
2024-04-21 12:48 amNNE 12.0 15.0----29.95- 67.6-----
2024-04-21 12:42 amNNE 11.1 13.0----29.95- 67.8-----
2024-04-21 12:36 amNNE 11.1 14.0----29.96- 67.8-----
2024-04-21 12:30 amNNE 11.1 13.0----29.96- 68.4-----
2024-04-21 12:24 amNNE 12.0 15.0----29.95- 68.4-----
2024-04-21 12:18 amNNE 13.0 15.9----29.95- 68.9-----
2024-04-21 12:12 amNNE 11.1 13.0----29.96- 69.3-----
2024-04-21 12:06 amNNE 14.0 15.9----29.96- 68.5-----
2024-04-21 12:00 am N 13.0 15.0----29.96-0.01 68.9-----
2024-04-20 11:54 pm S 5.1 8.9----29.96- 73.6-----
2024-04-20 11:48 pm S 7.0 8.9----29.96- 73.8-----
2024-04-20 11:42 pm S 9.9 11.1----29.95- 73.8-----
2024-04-20 11:36 pm S 9.9 11.1----29.95- 73.8-----
2024-04-20 11:30 pm S 8.9 11.1----29.95- 73.8-----
2024-04-20 11:24 pm S 8.9 9.9----29.96- 73.6-----
2024-04-20 11:18 pm S 9.9 11.1----29.96- 73.8-----
2024-04-20 11:12 pm S 8.9 9.9----29.96- 73.8-----
2024-04-20 11:06 pm S 7.0 8.0----29.97- 73.8-----
2024-04-20 11:00 pm S 6.0 7.0----29.97+0.00 73.9-----
2024-04-20 10:54 pm S 7.0 8.0----29.97- 73.9-----
2024-04-20 10:48 pmSSW 7.0 8.0----29.98- 73.9-----
2024-04-20 10:42 pm S 7.0 8.9----29.98- 73.9-----
2024-04-20 10:36 pmSSW 8.0 8.9----29.98- 74.1-----
2024-04-20 10:30 pm S 7.0 8.0----29.98- 73.9-----
2024-04-20 10:24 pm S 7.0 8.0----29.98- 74.1-----
2024-04-20 10:18 pm S 5.1 6.0----29.98- 73.9-----
2024-04-20 10:12 pm S 5.1 7.0----29.97- 73.9-----
2024-04-20 10:06 pm S 5.1 6.0----29.97- 73.8-----
2024-04-20 10:00 pm S 5.1 7.0----29.97+0.01 73.8-----
2024-04-20 09:54 pm S 6.0 7.0----29.97- 73.9-----
2024-04-20 09:48 pm S 5.1 7.0----29.97- 73.9-----
2024-04-20 09:42 pmSSW 7.0 8.0----29.97- 73.9-----
2024-04-20 09:36 pmSSW 7.0 8.0----29.97- 73.9-----
2024-04-20 09:30 pm S 7.0 8.0----29.97- 73.9-----
2024-04-20 09:24 pm S 8.0 8.9----29.97- 74.1-----
2024-04-20 09:18 pmSSW 8.0 9.9----29.97- 73.9-----
2024-04-20 09:12 pm S 8.9 11.1----29.97- 73.9-----
2024-04-20 09:06 pmSSW 8.9 11.1----29.97- 73.9-----
2024-04-20 09:00 pmSSW 8.0 9.9----29.97+0.01 74.3-----
2024-04-20 08:54 pmSSW 8.9 11.1----29.98- 74.1-----
2024-04-20 08:48 pm-------29.98-------
2024-04-20 08:42 pmSSW 8.9 12.0----29.98- 74.5-----
2024-04-20 08:36 pmSSW 9.9 11.1----29.97- 74.3-----
2024-04-20 08:30 pmSSW 9.9 12.0----29.97- 74.3-----
2024-04-20 08:24 pmSSW 8.9 11.1----29.97- 74.5-----
2024-04-20 08:18 pmSSW 9.9 11.1----29.97- 74.3-----
2024-04-20 08:12 pm SW 8.9 11.1----29.97- 74.3-----
2024-04-20 08:06 pm SW 8.9 9.9----29.97- 74.1-----
2024-04-20 08:00 pmSSW 8.9 11.1----29.97+0.01 73.9-----
2024-04-20 07:54 pmSSW 9.9 11.1----29.97- 74.1-----
2024-04-20 07:48 pmSSW 9.9 12.0----29.97- 74.1-----
2024-04-20 07:42 pmSSW 9.9 12.0----29.97- 74.3-----
2024-04-20 07:36 pmSSW 11.1 13.0----29.97- 74.1-----
2024-04-20 07:30 pm SW 12.0 13.0----29.97- 73.9-----
2024-04-20 07:24 pmSSW 12.0 13.0----29.97- 74.1-----
2024-04-20 07:18 pmSSW 12.0 15.0------ 74.1-----
2024-04-20 07:12 pmSSW 13.0 14.0------ 74.1-----
2024-04-20 07:06 pmSSW 13.0 15.0------ 74.3-----
2024-04-20 07:00 pmSSW 13.0 14.0----29.96-0.03 74.5-----
2024-04-20 06:54 pmSSW 13.0 15.0----29.96- 74.3-----
2024-04-20 06:48 pmSSW 12.0 14.0----29.96-------
2024-04-20 06:42 pmSSW 11.1 12.0----29.97-------
2024-04-20 06:36 pmSSW 9.9 11.1----29.97-------
2024-04-20 06:30 pmSSW 8.9 9.9----29.97- 74.7-----
2024-04-20 06:24 pmSSW 8.9 11.1----29.97- 74.7-----
2024-04-20 06:18 pmSSW 8.9 11.1----29.97-------
2024-04-20 06:12 pmSSW 9.9 12.0----29.97-------
2024-04-20 06:06 pmSSW 12.0 14.0----29.97-------
2024-04-20 06:00 pm S 12.0 13.0----29.96-0.04 75.0-----
2024-04-20 05:54 pmSSW 13.0 15.9----29.96- 74.8-----
2024-04-20 05:48 pmSSW 14.0 15.9----29.96- 74.7-----
2024-04-20 05:42 pm S 14.0 15.9----29.96- 75.0-----
2024-04-20 05:36 pm S 15.0 17.1----29.96- 75.0-----
2024-04-20 05:30 pm S 15.0 17.1----29.96- 75.2-----
2024-04-20 05:24 pm S 15.0 17.1----29.96- 75.4-----
2024-04-20 05:18 pm S 15.0 18.1----29.96- 75.6-----
2024-04-20 05:12 pm S 15.9 18.1----29.96- 74.8-----
2024-04-20 05:06 pm S 15.0 17.1----29.96- 75.2-----
2024-04-20 05:00 pm-------29.96-0.08 75.2-----
2024-04-20 04:54 pm-------29.96- 75.7-----
2024-04-20 04:48 pm S 14.0 17.1----29.96- 75.7-----
2024-04-20 04:42 pm S 14.0 15.9----29.96- 76.1-----
2024-04-20 04:36 pm S 13.0 15.9----29.97- 76.1-----
2024-04-20 04:30 pm S 14.0 17.1----29.97- 75.9-----
2024-04-20 04:24 pm S 14.0 15.9----29.98- 76.1-----
2024-04-20 04:18 pm S 14.0 17.1----29.98- 75.9-----
2024-04-20 04:12 pm S 14.0 17.1----29.98- 75.7-----
2024-04-20 04:06 pmSSW 13.0 15.0----29.98- 75.9-----
2024-04-20 04:00 pm S 14.0 15.9----29.98-0.06 75.9-----
2024-04-20 03:54 pm S 14.0 15.9----29.98- 76.3-----
2024-04-20 03:48 pm S 13.0 15.9----29.98-------
2024-04-20 03:42 pm S 13.0 15.9----29.99-------
2024-04-20 03:36 pm S 12.0 15.0----29.99-------
2024-04-20 03:30 pm S 13.0 15.9----29.99- 76.6-----
2024-04-20 03:24 pm S 13.0 15.0----29.99- 76.8-----
2024-04-20 03:18 pm S 13.0 15.0------ 76.1-----
2024-04-20 03:12 pm S 12.0 15.0------ 76.5-----
2024-04-20 03:06 pm S 13.0 15.0------ 77.0-----
2024-04-20 03:00 pm-------30.01-0.05 77.0-----
2024-04-20 02:54 pm-------30.01- 76.8-----
2024-04-20 02:48 pm S 12.0 14.0----30.01- 76.3-----
2024-04-20 02:42 pm S 12.0 14.0----30.01- 76.6-----
2024-04-20 02:36 pm S 13.0 14.0----30.02- 76.8-----
2024-04-20 02:30 pm S 11.1 15.0----30.02- 77.0-----
2024-04-20 02:24 pm S 12.0 14.0----30.02- 76.8-----
2024-04-20 02:18 pm S 11.1 13.0----30.03- 77.0-----
2024-04-20 02:12 pm S 9.9 13.0----30.03- 77.7-----
2024-04-20 02:06 pm S 11.1 13.0----30.03- 77.0-----
2024-04-20 02:00 pm S 12.0 14.0----30.03-0.04------
2024-04-20 01:54 pmSSW 11.1 12.0----30.04-------
2024-04-20 01:48 pm S 11.1 13.0----30.04- 76.8-----
2024-04-20 01:42 pmSSW 11.1 13.0----30.05- 76.6-----
2024-04-20 01:36 pmSSW 11.1 13.0----30.05- 76.6-----
2024-04-20 01:30 pmSSW 11.1 12.0------ 76.5-----
2024-04-20 01:24 pmSSW 9.9 12.0------ 77.2-----
2024-04-20 01:18 pm S 9.9 12.0----30.05- 76.6-----
2024-04-20 01:12 pm S 9.9 11.1----30.05- 77.0-----
2024-04-20 01:06 pm S 8.9 11.1----30.05- 77.2-----
2024-04-20 01:00 pm S 8.0 9.9----30.04-0.04 77.0-----
2024-04-20 12:54 pmSSW 8.9 11.1----30.04- 76.3-----
2024-04-20 12:48 pm S 8.9 11.1----30.05- 77.0-----
2024-04-20 12:42 pm S 9.9 12.0----30.05- 77.2-----
2024-04-20 12:36 pmSSW 8.9 11.1----30.05- 77.0-----
2024-04-20 12:30 pm S 8.0 9.9----30.05- 78.1-----
2024-04-20 12:24 pm S 7.0 9.9----30.05- 78.3-----
2024-04-20 12:18 pm S 6.0 8.0----30.05- 78.4-----
2024-04-20 12:12 pm S 6.0 7.0----30.05- 77.7-----
2024-04-20 12:06 pm S 6.0 7.0----30.06- 77.9-----
2024-04-20 12:00 pm S 6.0 7.0----30.06-0.02 78.1-----
2024-04-20 11:54 am S 5.1 6.0----30.06- 77.9-----
2024-04-20 11:48 am S 5.1 7.0----30.06- 77.9-----
2024-04-20 11:42 am S 5.1 6.0----30.06- 78.1-----
2024-04-20 11:36 amSSW 5.1 6.0----30.06- 78.3-----
2024-04-20 11:30 am S 5.1 6.0----30.07- 78.4-----
2024-04-20 11:24 amSSW 4.1 6.0----30.07- 77.7-----
2024-04-20 11:18 amSSW 4.1 5.1----30.07- 77.7-----
2024-04-20 11:12 amSSW 4.1 5.1----30.07- 78.1-----
2024-04-20 11:06 amSSW 4.1 5.1----30.07- 77.7-----
2024-04-20 11:00 amSSW 2.9 5.1----30.07+0.03 78.4-----
2024-04-20 10:54 am SW 2.9 4.1----30.08- 77.7-----
2024-04-20 10:48 am SW 2.9 4.1----30.08- 77.5-----
2024-04-20 10:42 amSSW 2.9 4.1----30.08- 77.0-----
2024-04-20 10:36 am SW 4.1 5.1----30.08- 76.8-----
2024-04-20 10:30 am SW 4.1 5.1----30.08- 76.1-----
2024-04-20 10:24 am SW 4.1 5.1----30.09- 76.3-----
2024-04-20 10:18 am SW 4.1 5.1----30.08- 76.5-----
2024-04-20 10:12 am SW 4.1 5.1----30.08- 76.6-----
2024-04-20 10:06 am SW 4.1 5.1----30.08- 76.8-----
2024-04-20 10:00 am SW 2.9 4.1----30.08+0.04 76.8-----
2024-04-20 09:54 amWSW 2.9 2.9----30.08- 76.8-----
2024-04-20 09:48 amWSW 2.9 4.1----30.08- 76.5-----
2024-04-20 09:42 amWSW 2.9 2.9----30.08- 76.3-----
2024-04-20 09:36 am SW 1.9 2.9----30.08- 75.6-----
2024-04-20 09:30 am SW 2.9 2.9----30.08- 75.6-----
2024-04-20 09:24 am SW 2.9 4.1----30.08- 74.8-----
2024-04-20 09:18 amSSW 2.9 2.9----30.07- 74.8-----
2024-04-20 09:12 amSSW 2.9 4.1----30.07- 74.7-----
2024-04-20 09:06 am SW 2.9 4.1----30.07- 74.5-----
2024-04-20 09:00 am SW 4.1 5.1----30.08+0.03 75.0-----
2024-04-20 08:54 amSSW 2.9 5.1----30.07- 75.4-----
2024-04-20 08:48 amSSW 1.9 2.9----30.07-------
2024-04-20 08:42 amESE 1.9 2.9----30.07-------
2024-04-20 08:36 am E 2.9 4.1----30.06-------
2024-04-20 08:30 am E 1.9 4.1----30.06- 75.7-----
2024-04-20 08:24 amENE 2.9 4.1----30.05- 75.2-----
2024-04-20 08:18 am E 5.1 6.0----30.04- 75.4-----
2024-04-20 08:12 amENE 4.1 5.1----30.04- 75.2-----
2024-04-20 08:06 amENE 2.9 4.1----30.04- 74.8-----
2024-04-20 08:00 amENE 2.9 2.9----30.05+0.00 74.3-----
2024-04-20 07:54 amENE 1.9 1.9----30.05- 74.1-----
2024-04-20 07:48 amENE 1.9 2.9----30.04- 74.1-----
2024-04-20 07:42 amENE 1.9 2.9----30.04- 74.1-----
2024-04-20 07:36 amENE 1.9 2.9----30.04- 74.1-----
2024-04-20 07:30 amNNE 1.0 1.9----30.04- 74.1-----
2024-04-20 07:24 am- 0.0 1.9----30.04- 73.9-----
2024-04-20 07:18 amNNW 1.9 2.9----30.04- 73.9-----
2024-04-20 07:12 am NW 1.9 4.1----30.04- 74.1-----
2024-04-20 07:06 amNNW 4.1 5.1----30.04- 73.9-----
2024-04-20 07:00 amNNW 5.1 7.0----30.04+0.01 73.8-----
2024-04-20 06:54 amNNW 4.1 6.0----30.04- 73.8-----
2024-04-20 06:48 amNNW 4.1 5.1----30.04- 73.9-----
2024-04-20 06:42 amNNW 4.1 5.1----30.04- 73.6-----
2024-04-20 06:36 amNNW 2.9 5.1----30.05- 73.4-----
2024-04-20 06:30 amWNW 4.1 5.1----30.05- 73.6-----
2024-04-20 06:24 am NW 4.1 5.1----30.05- 73.4-----
2024-04-20 06:18 am NW 4.1 5.1----30.04- 73.4-----
2024-04-20 06:12 am NW 4.1 5.1----30.04- 73.2-----
2024-04-20 06:06 amWNW 5.1 6.0----30.05- 73.4-----
2024-04-20 06:00 am NW 5.1 5.1----30.04+0.03 73.4-----
2024-04-20 05:54 am NW 4.1 5.1----30.04- 73.2-----